Location: Unspecified
(0.0000°N, 0.0000°E)
Time: 19:58:38
(UTC+00:00)

S-56A Canister/Altair - All Passes

Search period start: 30 August 2015 00:00
Search period end: 09 September 2015 00:00
Orbit: 636 x 2499 km, 38.9° (Epoch: 29 August)

Date Brightness Start Highest point End Pass type
(mag) Time Alt. Az. Time Alt. Az. Time Alt. Az.
30 Aug - 01:54:03 10° NNW 02:05:04 41° NE 02:12:45 10° ESE visible
30 Aug - 04:00:55 10° WNW 04:10:14 48° SW 04:16:26 10° SSE visible
30 Aug - 14:35:23 10° SW 14:42:36 66° SE 14:53:44 10° NE daylight
30 Aug - 16:40:05 10° W 16:48:37 36° NNW 17:00:05 10° NNE daylight
30 Aug - 18:53:17 10° NW 18:58:02 12° NNW 19:02:18 10° N visible
30 Aug - 23:18:29 10° N 23:23:04 12° NNE 23:28:01 10° NE visible
31 Aug - 01:20:57 10° NNW 01:32:11 37° NNE 01:40:18 10° E night (unlit)
31 Aug - 03:27:27 10° WNW 03:37:51 59° SW 03:44:37 10° SE visible
31 Aug - 14:03:30 10° SSW 14:10:09 55° SE 14:20:17 10° ENE daylight
31 Aug - 16:07:34 10° W 16:15:39 40° NNW 16:27:00 10° NNE daylight
31 Aug - 18:19:10 10° NW 18:24:35 13° NNW 18:29:46 10° N visible
31 Aug - 22:46:07 10° N 22:49:36 11° NNE 22:53:41 10° NE visible
01 Sep - 00:47:52 10° NNW 00:59:12 34° NNE 01:07:44 10° E night (unlit)
01 Sep - 02:54:01 10° NW 03:05:23 72° SW 03:12:43 10° SE visible
01 Sep - 05:07:21 10° WSW 05:09:33 11° SW 05:11:00 10° SSW visible
01 Sep - 13:31:44 10° SSW 13:37:47 44° SE 13:46:48 10° ENE daylight
01 Sep - 15:35:09 10° WSW 15:42:48 44° NW 15:53:52 10° NNE daylight
01 Sep - 17:45:26 10° NW 17:51:13 14° NNW 17:57:04 10° N daylight
01 Sep - 22:14:29 10° N 22:16:02 10° NNE 22:18:23 10° NNE visible
02 Sep - 00:14:49 10° NNW 00:26:06 31° NNE 00:35:02 10° E visible
02 Sep - 02:20:37 10° NW 02:32:48 84° SW 02:40:44 10° SE visible
02 Sep - 04:32:00 10° W 04:37:08 16° SW 04:40:55 10° S visible
02 Sep - 13:00:04 10° SSW 13:05:29 34° SE 13:13:17 10° ENE daylight
02 Sep - 15:02:52 10° WSW 15:10:03 49° NW 15:20:46 10° NE daylight
02 Sep - 17:12:01 10° WNW 17:17:57 15° NNW 17:24:17 10° N daylight
02 Sep - 23:41:48 10° NNW 23:52:56 28° NNE 00:02:09 10° E visible
03 Sep - 01:47:14 10° NW 02:00:08 85° NE 02:08:38 10° SE visible
03 Sep - 03:57:34 10° W 04:04:42 21° SW 04:09:51 10° S visible
03 Sep - 12:28:32 10° S 12:33:13 26° SE 12:39:42 10° E daylight
03 Sep - 14:30:39 10° WSW 14:37:25 56° NW 14:47:40 10° NE daylight
03 Sep - 16:38:49 10° WNW 16:44:47 17° NNW 16:51:27 10° N daylight
03 Sep - 23:08:51 10° NNW 23:19:40 26° NNE 23:29:05 10° E visible
04 Sep - 01:13:54 10° NW 01:27:21 76° NE 01:36:27 10° SE night (unlit)
04 Sep - 03:23:25 10° W 03:32:14 27° SW 03:38:26 10° S visible
04 Sep - 11:57:11 10° S 12:00:59 19° SE 12:06:00 10° E daylight
04 Sep - 13:58:32 10° WSW 14:04:53 65° NW 14:14:35 10° NE daylight
04 Sep - 16:05:49 10° WNW 16:11:44 18° NNW 16:18:35 10° NNE daylight
04 Sep - 22:35:59 10° NNW 22:46:19 23° NNE 22:55:49 10° ENE visible
05 Sep - 00:40:37 10° NW 00:54:28 67° NE 01:04:09 10° ESE night (unlit)
05 Sep - 02:49:26 10° WNW 02:59:44 34° SW 03:06:50 10° SSE visible
05 Sep - 11:26:11 10° SSE 11:28:45 14° SE 11:32:01 10° ESE daylight
05 Sep - 13:26:29 10° SW 13:32:26 77° NW 13:41:32 10° NE daylight
05 Sep - 15:32:59 10° WNW 15:38:46 19° NNW 15:45:44 10° NNE daylight
05 Sep - 22:03:12 10° NNW 22:12:54 21° NNE 22:22:19 10° ENE visible
06 Sep - 00:07:22 10° NW 00:21:28 60° NE 00:31:44 10° ESE visible
06 Sep - 02:15:34 10° WNW 02:27:09 42° SW 02:35:05 10° SSE visible
06 Sep - 12:54:31 10° SW 13:00:06 88° SE 13:08:30 10° NE daylight
06 Sep - 15:00:18 10° WNW 15:05:56 21° NNW 15:12:54 10° NNE daylight
06 Sep - 21:30:34 10° N 21:39:25 19° NNE 21:48:30 10° ENE visible
06 Sep - 23:34:13 10° NW 23:48:22 54° NE 23:59:11 10° ESE visible
07 Sep - 01:41:47 10° WNW 01:54:29 50° SW 02:03:11 10° SSE night (unlit)
07 Sep - 12:22:37 10° SW 12:27:51 72° SE 12:35:30 10° NE daylight
07 Sep - 14:27:43 10° W 14:33:10 23° NNW 14:40:07 10° NNE daylight
07 Sep - 20:58:07 10° N 21:05:54 16° NNE 21:14:22 10° ENE visible
07 Sep - 23:01:08 10° NNW 23:15:11 48° NE 23:26:29 10° ESE visible
08 Sep - 01:08:07 10° WNW 01:21:43 59° SW 01:31:12 10° SSE night (unlit)
08 Sep - 03:23:12 10° WSW 03:27:05 12° SW 03:29:46 10° SSW visible
08 Sep - 11:50:47 10° SW 11:55:39 55° SE 12:02:30 10° ENE daylight
08 Sep - 13:55:16 10° W 14:00:30 25° NNW 14:07:22 10° NNE daylight
08 Sep - 20:25:55 10° N 20:32:21 14° NNE 20:39:47 10° NE visible
08 Sep - 22:28:09 10° NNW 22:41:55 43° NE 22:53:39 10° ESE visible
